sat.trackr.live / text

‹ back to catalog

STARLINK-3115

NORAD 49447 · 2021-104AR

PAYLOAD ACTIVE UNKNOWN

§ Identity

Operator
Country
US
Launch date
2021-11-13
Launch site
AFETR
Launch vehicle
Mass (kg)
RCS (m²)

Purposes: comms

External: N2YO · Heavens-Above · Gunter

§ Orbital elements

Epoch: 2026-05-24T15:56:48.248448Z

Period
95.44 min
Inclination
53.2153°
Eccentricity
0.0001190
Mean motion
15.08835515 rev/d
Perigee alt
538.9 km
Apogee alt
540.6 km
Semi-major
6,917.9 km
B*
4.0665e-5
RAAN
238.0538°
Arg perigee
92.8120°
Mean anomaly
267.3008°
Rev number
25,024

§ Raw data

STARLINK-31151 49447U 21104AR  26144.66444732  .00000359  00000+0  40665-4 0  99902 49447  53.2153 238.0538 0001190  92.8120 267.3008 15.08835515250241

JSON: /api/v1/satellites/49447 · /tle

For live sub-satellite position, see the globe view (requires WebGL).

§ Visibility from observer

Set your observer location to see the next 7 days of passes ≥ 10°. The values pass through the URL so the page stays shareable.

No JS? Fill the form by hand. The geolocation button needs JavaScript.